| time (UTC) | temp C | wind direction | speed KPH | gust KPH | rain 1hr cm | rain 24hr cm | rain mn cm | humidity % | barometer mb |
| 20260504001552 | 11 | 0 | 0.0 | 3.2 | 0.00 | 0.00 | 0.00 | 49 | 1011.8 |
| 20260504000106 | 12 | 0 | 0.0 | 6.4 | 0.00 | 0.00 | 0.00 | 45 | 1011.5 |
| 20260503234549 | 12 | 0 | 0.0 | 1.6 | 0.00 | 0.00 | 0.00 | 43 | 1011.4 |
| 20260503233049 | 13 | 0 | 1.6 | 11.3 | 0.00 | 0.00 | 0.00 | 41 | 1011.4 |
| 20260503231554 | 13 | 0 | 4.8 | 12.9 | 0.00 | 0.00 | 0.00 | 40 | 1011.3 |
| 20260503230052 | 14 | 303 | 1.6 | 14.5 | 0.00 | 0.00 | 0.00 | 39 | 1011.3 |
| 20260503224600 | 14 | 0 | 4.8 | 17.7 | 0.00 | 0.00 | 0.00 | 37 | 1011.3 |
| 20260503223050 | 15 | 296 | 4.8 | 16.1 | 0.00 | 0.00 | 0.00 | 37 | 1011.2 |
| 20260503221601 | 15 | 298 | 8.0 | 19.3 | 0.00 | 0.00 | 0.00 | 36 | 1011.1 |
| 20260503220052 | 15 | 317 | 9.7 | 20.9 | 0.00 | 0.00 | 0.00 | 35 | 1010.9 |
| 20260503214551 | 14 | 285 | 4.8 | 20.9 | 0.00 | 0.00 | 0.00 | 36 | 1011.2 |
| 20260503213050 | 15 | 297 | 4.8 | 17.7 | 0.00 | 0.00 | 0.00 | 36 | 1011.0 |
| 20260503211556 | 15 | 319 | 6.4 | 19.3 | 0.00 | 0.00 | 0.00 | 33 | 1011.0 |
| 20260503210050 | 15 | 338 | 12.9 | 29.0 | 0.00 | 0.00 | 0.00 | 35 | 1011.1 |
| 20260503204609 | 15 | 331 | 9.7 | 25.7 | 0.00 | 0.00 | 0.00 | 36 | 1011.2 |
| 20260503203049 | 15 | 327 | 9.7 | 20.9 | 0.00 | 0.00 | 0.00 | 37 | 1011.1 |
| 20260503201552 | 15 | 284 | 8.0 | 19.3 | 0.00 | 0.00 | 0.00 | 36 | 1011.3 |
| 20260503200054 | 13 | 296 | 4.8 | 19.3 | 0.00 | 0.00 | 0.00 | 38 | 1011.5 |
| 20260503194555 | 13 | 281 | 8.0 | 29.0 | 0.00 | 0.00 | 0.00 | 35 | 1011.5 |
| 20260503193051 | 13 | 242 | 4.8 | 19.3 | 0.00 | 0.00 | 0.00 | 37 | 1011.6 |
| 20260503191608 | 13 | 304 | 11.3 | 29.0 | 0.00 | 0.00 | 0.00 | 35 | 1011.5 |
| 20260503190048 | 13 | 314 | 4.8 | 22.5 | 0.00 | 0.00 | 0.00 | 41 | 1011.6 |
| 20260503184553 | 13 | 321 | 3.2 | 29.0 | 0.00 | 0.00 | 0.00 | 41 | 1011.5 |
| 20260503183055 | 13 | 271 | 3.2 | 20.9 | 0.00 | 0.00 | 0.00 | 39 | 1011.7 |
| 20260503181552 | 12 | 298 | 8.0 | 22.5 | 0.00 | 0.00 | 0.00 | 39 | 1011.9 |
| 20260503180059 | 13 | 260 | 9.7 | 29.0 | 0.00 | 0.00 | 0.00 | 40 | 1012.1 |
| 20260503174555 | 12 | 284 | 11.3 | 24.1 | 0.00 | 0.00 | 0.00 | 43 | 1012.4 |
| 20260503173048 | 12 | 289 | 4.8 | 19.3 | 0.00 | 0.00 | 0.00 | 46 | 1012.3 |
| 20260503171550 | 11 | 291 | 6.4 | 20.9 | 0.00 | 0.00 | 0.00 | 42 | 1012.6 |
| 20260503081553 | 6 | 317 | 1.6 | 12.9 | 0.00 | 0.00 | 0.00 | 62 | 1011.0 |
| 20260503071611 | 5 | 0 | 0.0 | 0.0 | 0.00 | 0.00 | 0.00 | 69 | 1010.9 |
| 20260503054609 | 7 | 0 | 0.0 | 0.0 | 0.00 | 0.00 | 0.00 | 63 | 1011.0 |
| 20260503053055 | 7 | 0 | 0.0 | 1.6 | 0.00 | 0.00 | 0.00 | 62 | 1011.0 |
| 20260503051552 | 7 | 0 | 0.0 | 3.2 | 0.00 | 0.00 | 0.00 | 62 | 1011.3 |
| 20260503050051 | 7 | 0 | 0.0 | 1.6 | 0.00 | 0.00 | 0.00 | 60 | 1011.3 |
| 20260503044548 | 8 | 0 | 0.0 | 4.8 | 0.00 | 0.00 | 0.00 | 58 | 1011.4 |
| 20260503043055 | 8 | 325 | 0.0 | 6.4 | 0.00 | 0.00 | 0.00 | 58 | 1011.5 |
| 20260503041552 | 8 | 0 | 0.0 | 4.8 | 0.00 | 0.00 | 0.00 | 56 | 1011.7 |
| 20260503040055 | 8 | 332 | 1.6 | 4.8 | 0.00 | 0.00 | 0.00 | 56 | 1011.7 |
| 20260503034550 | 8 | 311 | 1.6 | 4.8 | 0.00 | 0.00 | 0.00 | 56 | 1011.8 |
| 20260503033058 | 8 | 0 | 0.0 | 4.8 | 0.00 | 0.00 | 0.00 | 57 | 1011.9 |
| 20260503031553 | 8 | 0 | 0.0 | 4.8 | 0.00 | 0.00 | 0.00 | 56 | 1012.0 |
| 20260503030049 | 8 | 329 | 0.0 | 4.8 | 0.00 | 0.00 | 0.00 | 57 | 1012.1 |
| 20260503024552 | 8 | 0 | 0.0 | 1.6 | 0.00 | 0.00 | 0.00 | 59 | 1011.9 |
| 20260503023054 | 8 | 0 | 0.0 | 0.0 | 0.00 | 0.00 | 0.00 | 59 | 1011.9 |
| 20260503021553 | 8 | 0 | 0.0 | 0.0 | 0.00 | 0.00 | 0.00 | 59 | 1011.8 |
| 20260503020050 | 8 | 0 | 0.0 | 0.0 | 0.00 | 0.00 | 0.00 | 60 | 1011.9 |
| 20260503014600 | 8 | 0 | 0.0 | 0.0 | 0.00 | 0.00 | 0.00 | 56 | 1011.8 |
| 20260503013050 | 9 | 0 | 0.0 | 1.6 | 0.00 | 0.00 | 0.00 | 57 | 1011.9 |
| 20260503011551 | 10 | 0 | 0.0 | 4.8 | 0.00 | 0.00 | 0.00 | 57 | 1011.9 |
| 20260503010054 | 9 | 320 | 1.6 | 8.0 | 0.00 | 0.00 | 0.00 | 56 | 1011.7 |
| 20260503004550 | 9 | 0 | 0.0 | 3.2 | 0.00 | 0.00 | 0.00 | 59 | 1011.4 |
| 20260503003051 | 10 | 0 | 0.0 | 0.0 | 0.00 | 0.00 | 0.00 | 57 | 1011.4 |